Location: Mentone
(34.5413°N, 85.5351°W)
Time: 05:14:30
(UTC-05:00)

Tiros 1 despin weight - All Passes

Search period start: 16 April 2014 00:00
Search period end: 26 April 2014 00:00
Orbit: 603 x 654 km, 48.2° (Epoch: 15 April)

Date Brightness Start Highest point End Pass type
(mag) Time Alt. Az. Time Alt. Az. Time Alt. Az.
16 Apr - 08:46:18 10° SSW 08:50:33 46° SE 08:54:48 10° ENE daylight
16 Apr - 10:28:23 10° W 10:32:24 32° NNW 10:36:27 10° NE daylight
16 Apr - 12:12:42 10° NW 12:15:15 15° N 12:17:48 10° NNE daylight
16 Apr - 13:55:26 10° NNW 13:58:26 17° NNE 14:01:28 10° NE daylight
16 Apr - 15:36:36 10° NW 15:41:01 50° NNE 15:45:28 10° ESE daylight
16 Apr - 17:18:46 10° WNW 17:22:36 27° SW 17:26:28 10° S daylight
17 Apr - 07:26:34 10° SSE 07:29:00 15° SE 07:31:26 10° E daylight
17 Apr - 09:05:51 10° SW 09:10:17 80° NW 09:14:45 10° NE daylight
17 Apr - 10:49:11 10° WNW 10:52:35 21° NNW 10:56:00 10° NNE daylight
17 Apr - 12:33:19 10° NNW 12:35:41 14° N 12:38:03 10° NNE daylight
17 Apr - 14:15:02 10° NNW 14:18:43 24° NNE 14:22:26 10° ENE daylight
17 Apr - 15:56:20 10° NW 16:00:53 81° SW 16:05:28 10° SE daylight
17 Apr - 17:40:35 10° WSW 17:42:06 12° SW 17:43:37 10° SSW daylight
18 Apr - 07:44:32 10° SSW 07:48:31 33° SE 07:52:31 10° ENE daylight
18 Apr - 09:26:01 10° W 09:30:13 40° NNW 09:34:26 10° NE daylight
18 Apr - 11:10:10 10° NW 11:12:54 16° N 11:15:39 10° NNE daylight
18 Apr - 12:53:22 10° NNW 12:56:06 16° N 12:58:51 10° NE daylight
18 Apr - 14:34:35 10° NW 14:38:50 39° NNE 14:43:06 10° E daylight
18 Apr - 16:16:24 10° WNW 16:20:34 36° SW 16:24:47 10° SSE daylight
19 Apr - 08:03:45 10° SW 08:08:11 76° SE 08:12:38 10° NE daylight
19 Apr - 09:46:39 10° WNW 09:50:18 24° NNW 09:53:59 10° NNE daylight
19 Apr - 11:30:58 10° NW 11:33:19 14° N 11:35:40 10° NNE daylight
19 Apr - 13:13:02 10° NNW 13:16:26 21° NNE 13:19:51 10° ENE daylight
19 Apr - 14:54:14 10° NW 14:58:45 76° NE 15:03:19 10° ESE daylight
19 Apr - 16:37:18 10° W 16:40:06 16° SW 16:42:56 10° SSW daylight
20 Apr - 06:42:54 10° S 06:46:30 24° SE 06:50:05 10° ENE daylight
20 Apr - 08:23:41 10° WSW 08:28:01 52° NNW 08:32:23 10° NE daylight
20 Apr - 10:07:35 10° WNW 10:10:34 17° NNW 10:13:33 10° NNE daylight
20 Apr - 11:51:14 10° NNW 11:53:45 15° N 11:56:16 10° NE daylight
20 Apr - 13:32:34 10° NW 13:36:36 31° NNE 13:40:39 10° E daylight
20 Apr - 15:14:08 10° WNW 15:18:30 50° SW 15:22:54 10° SSE daylight
21 Apr - 07:01:44 10° SW 07:06:05 55° SE 07:10:27 10° ENE daylight
21 Apr - 08:44:08 10° W 08:48:02 29° NNW 08:51:57 10° NE daylight
21 Apr - 10:28:30 10° NW 10:30:56 14° N 10:33:22 10° NNE daylight
21 Apr - 12:11:00 10° NNW 12:14:06 18° NNE 12:17:13 10° ENE daylight
21 Apr - 13:52:09 10° NW 13:56:35 57° NE 14:01:03 10° ESE daylight
21 Apr - 15:34:35 10° W 15:38:05 22° SW 15:41:36 10° S daylight
22 Apr - 05:41:29 10° S 05:44:28 18° SE 05:47:27 10° E daylight
22 Apr - 07:21:24 10° WSW 07:25:51 69° NW 07:30:17 10° NE daylight
22 Apr - 09:04:58 10° WNW 09:08:13 19° NNW 09:11:29 10° NNE daylight
22 Apr - 10:49:00 10° NNW 10:51:21 14° N 10:53:43 10° NE daylight
22 Apr - 12:30:33 10° NW 12:34:19 26° NNE 12:38:07 10° E daylight
22 Apr - 14:11:55 10° WNW 14:16:23 69° SW 14:20:53 10° SE daylight
23 Apr - 05:59:48 10° SSW 06:04:00 40° SE 06:08:10 10° ENE daylight
23 Apr - 07:41:39 10° W 07:45:46 36° NNW 07:49:54 10° NE daylight
23 Apr - 09:25:56 10° NW 09:28:32 15° N 09:31:09 10° NNE daylight
23 Apr - 11:08:54 10° NNW 11:11:44 16° NNE 11:14:34 10° NE daylight
23 Apr - 12:50:05 10° NW 12:54:22 44° NNE 12:58:41 10° ESE daylight
23 Apr - 14:32:05 10° WNW 14:36:01 30° SW 14:39:59 10° SSE daylight
24 Apr - 04:40:31 10° SSE 04:42:26 13° SE 04:44:21 10° ESE visible
24 Apr - 06:19:11 10° SW 06:23:40 89° SE 06:28:09 10° NE daylight
24 Apr - 08:02:21 10° WNW 08:05:53 22° NNW 08:09:24 10° NNE daylight
24 Apr - 09:46:38 10° NNW 09:48:56 14° N 09:51:14 10° NNE daylight
24 Apr - 11:28:29 10° NNW 11:32:00 22° NNE 11:35:31 10° ENE daylight
24 Apr - 13:09:44 10° NW 13:14:14 88° NE 13:18:45 10° SE daylight
24 Apr - 14:53:22 10° W 14:55:29 13° SW 14:57:37 10° SSW daylight
25 Apr - 04:58:01 10° SSW 05:01:54 29° SE 05:05:46 10° ENE visible
25 Apr - 06:39:13 10° WSW 06:43:31 45° NNW 06:47:49 10° NE daylight
25 Apr - 08:23:17 10° NW 08:26:08 16° NNW 08:28:59 10° NNE daylight
25 Apr - 10:06:44 10° NNW 10:09:20 15° N 10:11:55 10° NE daylight
25 Apr - 11:48:00 10° NW 11:52:06 35° NNE 11:56:14 10° E daylight
25 Apr - 13:29:42 10° WNW 13:33:54 41° SW 13:38:09 10° SSE daylight
